Location: Unspecified
(40.5113°N, 0.0000°E)
Time: 09:54:34
(UTC+00:00)

TITAN 4B DEB - Visible Passes

Search period start: 04 April 2026 00:00
Search period end: 14 April 2026 00:00
Orbit: 549 x 625 km, 68.0° (Epoch: 28 March)

Date Brightness Start Highest point End Pass type
(mag) Time Alt. Az. Time Alt. Az. Time Alt. Az.
4 Apr ? 04:14:23 10° NNW 04:18:29 51° ENE 04:22:38 10° SE visible
4 Apr ? 19:56:50 10° WSW 20:00:24 28° NW 20:03:59 10° N visible
5 Apr ? 02:45:17 10° NE 02:46:05 10° NE 02:46:54 10° NE visible
5 Apr ? 04:21:20 10° NNW 04:25:32 87° ENE 04:29:49 10° SSE visible
5 Apr ? 20:04:44 10° W 20:07:37 18° NW 20:10:31 10° N visible
6 Apr ? 02:50:47 10° N 02:53:25 16° NE 02:56:05 10° E visible
6 Apr ? 04:28:27 10° NW 04:32:33 53° WSW 04:36:44 10° S visible
6 Apr ? 20:13:18 10° WNW 20:14:55 12° NW 20:16:32 10° NNW visible
7 Apr ? 02:57:11 10° N 03:00:40 24° NE 03:04:11 10° ESE visible
7 Apr ? 04:35:46 10° NW 04:39:30 31° WSW 04:43:17 10° S visible
8 Apr ? 03:03:53 10° NNW 03:07:50 39° ENE 03:11:51 10° SE visible
8 Apr ? 04:43:26 10° WNW 04:46:23 19° WSW 04:49:23 10° SSW visible
9 Apr ? 03:10:45 10° NNW 03:14:56 66° ENE 03:19:12 10° SE visible
9 Apr ? 04:52:10 10° W 04:53:13 11° WSW 04:54:16 10° WSW visible
10 Apr ? 01:40:42 10° NNE 01:42:40 13° NE 01:43:11 13° NE visible
10 Apr ? 03:17:46 10° NNW 03:19:28 24° NW 03:19:28 24° NW visible
10 Apr ? 19:01:45 10° W 19:04:09 15° NW 19:06:34 10° NNW visible
11 Apr ? 01:46:51 10° N 01:48:09 15° NNE 01:48:09 15° NNE visible
12 Apr ? 01:53:25 10° N 01:53:57 13° N 01:53:57 13° N visible
